Simultaneous Nadir Overpasses (SNOs) Predictions

Prediction of SNOs between GOES-16 and LANDSAT-8 Satellite Orbit:

Table of predicted SNOs for the next 14.0 days since TLE Epoch: 8/1/2020
Index Date Time (GOES-16) GOES-16 Lat,Lon LANDSAT-8 Lat,Lon Distance(km) Time Diff (sec)
1 08/02/2020 03:09:34 0.01, -75.18 0.10, -74.66 58.78 80
2 08/04/2020 02:57:24 0.02, -75.19 0.78, -71.71 395.71 80
3 08/04/2020 15:21:19 -0.01, -75.20 0.34, -76.86 188.70 80
4 08/06/2020 15:06:28 -0.02, -75.22 -0.28, -73.90 149.43 80
5 08/07/2020 03:30:33 0.01, -75.22 -0.79, -79.10 441.30 80
6 08/08/2020 14:54:18 -0.03, -75.24 -0.97, -70.96 488.29 80
7 08/09/2020 03:18:22 0.02, -75.24 -0.16, -76.14 102.27 80
8 08/11/2020 03:03:31 0.02, -75.27 0.46, -73.18 237.25 80
9 08/11/2020 15:27:25 -0.01, -75.29 0.67, -78.33 346.80 80
10 08/13/2020 15:12:36 -0.01, -75.32 -0.02, -75.39 7.32 80
